Вернуться в каталог

SL-16 DEB

АктивенLEO
NORAD 22340·DEBRIS·🇷🇺 Russia

Запущен Dec 25, 1992 с Baikonur Cosmodrome

Loading…

Ближайшие Пролёты (ближайшие 24 часа)

TLE

СвежийSource: Space-Track

Эпоха: Sep 14, 2026, 12:54 UTC

1 22340U 92093AD  26257.53800037  .00000011  00000-0  41430-4 0  9990
2 22340  70.8749 296.1260 0103010 237.8648 194.6727 13.94560292715074

Отслеживайте SL-16 DEB в реальном времени с AllMySat

Download on the App Store